Date String (YYYY-MM-DD hh:mm:ss) UTC,Instrument flags,Ambient pressure (hPa),Sample flow (lpm),Bypass flow (lpm),Sample temperature (°C),Ambient temperature (°C),ASC tube jacket temperature (°C),LED temperature (°C),Box temperature (°C),Sample RH (%),Span deviation,Mass concentration (μg/m³),Mass concentration (μg/m³),Mass concentration (μg/m³)
DateTimeUTC,F1_M11,P_M11,Q1_M11,Q2_M11,T1_M11,T2_M11,T3_M11,T4_M11,T5_M11,U1_M11,ZSPAN_M11,X0_M11,X2_M11,X1_M11
2022-04-29 19:00:00,,0815.6,4.99,0.00,27.1,26.1,00.0,36.2,28.9,07.6,0000.0,0016.51,0004.27,0001.94
2022-04-29 19:01:00,,0815.6,5.02,0.00,27.1,26.1,00.0,36.2,28.9,07.6,0000.0,0016.72,0004.45,0001.99
2022-04-29 19:02:00,,0815.5,4.99,0.00,27.1,26.1,00.0,36.2,28.9,07.5,0000.0,0017.23,0004.57,0002.03
2022-04-29 19:03:00,,0815.1,5.02,0.00,27.1,26.1,00.0,36.1,28.9,07.2,0000.0,0017.54,0004.64,0002.06
2022-04-29 19:04:00,,0814.8,4.99,0.00,27.1,26.0,00.0,36.1,28.9,06.9,0000.0,0020.92,0004.77,0002.12
2022-04-29 19:05:00,,0814.9,5.00,0.00,27.1,26.0,00.0,36.1,28.9,06.7,0000.0,0026.88,0005.21,0002.22
2022-04-29 19:06:00,,0814.4,5.00,0.00,27.1,26.0,00.0,36.1,28.9,06.7,0000.0,0044.81,0005.93,0002.36
2022-04-29 19:07:00,,0814.2,5.00,0.00,27.1,25.9,00.0,36.1,28.9,06.6,0000.0,0058.90,0006.70,0002.54
2022-04-29 19:08:00,,0814.4,5.01,0.00,27.1,25.9,00.0,36.1,28.8,06.2,0000.0,0069.23,0007.39,0002.70
2022-04-29 19:09:00,,0814.5,5.00,0.00,27.1,25.8,00.0,36.1,28.8,06.2,0000.0,0074.42,0007.68,0002.77
2022-04-29 19:10:00,,0814.5,4.99,0.00,27.0,25.8,00.0,36.1,28.8,06.0,0000.0,0073.79,0007.84,0002.81
2022-04-29 19:11:00,,0814.8,5.01,0.00,27.0,25.8,00.0,36.1,28.8,06.1,0000.0,0077.76,0008.28,0002.90
2022-04-29 19:12:00,,0814.3,5.00,0.00,27.0,25.7,00.0,36.0,28.8,06.0,0000.0,0087.58,0008.73,0002.97
2022-04-29 19:13:00,,0814.7,5.00,0.00,27.0,25.7,00.0,36.0,28.7,05.9,0000.0,0092.17,0008.97,0003.03
2022-04-29 19:14:00,,0814.6,4.99,0.00,27.0,25.7,00.0,36.0,28.7,06.1,0000.0,0094.02,0009.23,0003.11
2022-04-29 19:15:00,,0814.8,5.02,0.00,27.0,25.7,00.0,36.0,28.7,06.1,0000.0,0092.22,0009.25,0003.12
2022-04-29 19:16:00,,0815.0,4.99,0.00,27.0,25.7,00.0,36.0,28.7,06.2,0000.0,0088.73,0009.01,0003.10
2022-04-29 19:17:00,,0815.0,5.02,0.00,26.9,25.8,00.0,36.0,28.6,06.2,0000.0,0076.37,0008.51,0003.03
2022-04-29 19:18:00,,0814.9,4.98,0.00,26.9,25.8,00.0,36.0,28.6,06.1,0000.0,0060.56,0007.94,0002.91
2022-04-29 19:19:00,,0814.7,5.00,0.00,26.9,25.8,00.0,36.0,28.7,06.1,0000.0,0051.20,0007.25,0002.74
2022-04-29 19:20:00,,0814.7,5.01,0.00,26.9,25.7,00.0,35.9,28.7,06.1,0000.0,0045.85,0007.02,0002.68
2022-04-29 19:21:00,,0814.6,4.99,0.00,26.9,25.7,00.0,35.9,28.6,06.2,0000.0,0045.99,0006.96,0002.68
2022-04-29 19:22:00,,0814.9,5.01,0.00,26.9,25.7,00.0,35.9,28.6,06.2,0000.0,0042.39,0006.52,0002.62
2022-04-29 19:23:00,,0815.0,5.00,0.00,26.9,25.7,00.0,35.9,28.6,06.3,0000.0,0032.15,0005.93,0002.54
2022-04-29 19:24:00,,0814.9,4.99,0.00,26.8,25.7,00.0,35.9,28.5,06.4,0000.0,0026.56,0005.61,0002.49
2022-04-29 19:25:00,,0814.9,5.01,0.00,26.8,25.7,00.0,35.9,28.5,06.5,0000.0,0023.61,0005.28,0002.41
2022-04-29 19:26:00,,0815.0,4.98,0.00,26.8,25.6,00.0,35.9,28.5,06.5,0000.0,0021.51,0005.06,0002.33
2022-04-29 19:27:00,,0815.1,5.00,0.00,26.8,25.6,00.0,35.9,28.5,06.6,0000.0,0019.79,0004.87,0002.28
2022-04-29 19:28:00,,0815.3,5.01,0.00,26.8,25.6,00.0,35.8,28.5,06.6,0000.0,0018.59,0004.68,0002.23
2022-04-29 19:29:00,,0815.8,5.00,0.00,26.8,25.6,00.0,35.8,28.5,06.7,0000.0,0016.13,0004.48,0002.19
2022-04-29 19:30:00,,0816.0,4.99,0.00,26.7,25.6,00.0,35.8,28.5,06.8,0000.0,0015.18,0004.36,0002.18
2022-04-29 19:31:00,,0815.7,5.00,0.00,26.7,25.6,00.0,35.8,28.4,06.8,0000.0,0013.07,0004.15,0002.14
2022-04-29 19:32:00,,0815.7,4.99,0.00,26.7,25.6,00.0,35.8,28.4,06.6,0000.0,0011.17,0003.86,0002.06
2022-04-29 19:33:00,,0815.6,4.99,0.00,26.7,25.6,00.0,35.8,28.4,06.2,0000.0,0011.31,0003.78,0002.02
2022-04-29 19:34:00,,0815.6,5.02,0.00,26.7,25.6,00.0,35.8,28.5,06.1,0000.0,0011.43,0003.79,0002.01
2022-04-29 19:35:00,,0815.9,4.98,0.00,26.7,25.6,00.0,35.8,28.4,06.1,0000.0,0011.38,0003.80,0002.00
2022-04-29 19:36:00,,0816.1,5.02,0.00,26.7,25.5,00.0,35.7,28.4,06.2,0000.0,0011.14,0003.78,0001.99
2022-04-29 19:37:00,,0816.3,4.99,0.00,26.7,25.6,00.0,35.7,28.4,06.2,0000.0,0011.19,0003.77,0002.00
2022-04-29 19:38:00,,0816.4,5.00,0.00,26.7,25.6,00.0,35.7,28.4,06.3,0000.0,0011.37,0003.79,0002.00
2022-04-29 19:39:00,,0816.1,4.99,0.00,26.6,25.6,00.0,35.7,28.4,06.3,0000.0,0011.63,0003.79,0002.01
2022-04-29 19:40:00,,0816.1,4.99,0.00,26.6,25.6,00.0,35.7,28.4,06.0,0000.0,0012.24,0003.84,0002.05
2022-04-29 19:41:00,,0816.0,5.01,0.00,26.6,25.6,00.0,35.7,28.4,05.8,0000.0,0012.16,0003.85,0002.08
2022-04-29 19:42:00,,0816.0,4.99,0.00,26.6,25.5,00.0,35.7,28.4,05.6,0000.0,0012.47,0003.93,0002.10
2022-04-29 19:43:00,,0816.3,5.01,0.00,26.6,25.5,00.0,35.7,28.4,05.4,0000.0,0012.47,0003.98,0002.15
2022-04-29 19:44:00,,0816.2,5.00,0.00,26.6,25.5,00.0,35.7,28.3,05.4,0000.0,0012.65,0003.94,0002.18
2022-04-29 19:45:00,,0816.0,4.99,0.00,26.6,25.5,00.0,35.7,28.3,05.4,0000.0,0013.03,0003.89,0002.21
2022-04-29 19:46:00,,0816.1,5.02,0.00,26.6,25.5,00.0,35.6,28.3,05.2,0000.0,0013.22,0003.94,0002.25
2022-04-29 19:47:00,,0816.3,4.99,0.00,26.6,25.4,00.0,35.6,28.3,05.2,0000.0,0013.38,0004.00,0002.29
2022-04-29 19:48:00,,0816.2,5.01,0.00,26.5,25.4,00.0,35.6,28.3,05.2,0000.0,0013.73,0004.08,0002.36
2022-04-29 19:49:00,,0816.2,4.99,0.00,26.5,25.4,00.0,35.6,28.3,05.1,0000.0,0013.51,0004.09,0002.41
2022-04-29 19:50:00,,0815.9,5.01,0.00,26.5,25.4,00.0,35.6,28.3,04.9,0000.0,0013.23,0004.09,0002.45
2022-04-29 19:51:00,,0816.1,5.00,0.00,26.5,25.4,00.0,35.6,28.3,04.5,0000.0,0012.61,0004.07,0002.46
2022-04-29 19:52:00,,0816.2,5.01,0.00,26.5,25.4,00.0,35.6,28.3,04.3,0000.0,0013.45,0004.12,0002.49
2022-04-29 19:53:00,,0816.0,5.01,0.00,26.5,25.4,00.0,35.5,28.3,04.5,0000.0,0013.34,0004.08,0002.54
2022-04-29 19:54:00,,0816.1,5.00,0.00,26.5,25.4,00.0,35.5,28.2,04.5,0000.0,0014.82,0004.13,0002.57
2022-04-29 19:55:00,,0816.2,5.00,0.00,26.5,25.4,00.0,35.5,28.3,04.4,0000.0,0015.21,0004.19,0002.61
2022-04-29 19:56:00,,0816.2,5.00,0.00,26.5,25.3,00.0,35.5,28.2,04.5,0000.0,0014.71,0004.24,0002.65
2022-04-29 19:57:00,,0816.3,5.01,0.00,26.5,25.4,00.0,35.5,28.2,04.6,0000.0,0014.46,0004.19,0002.67
2022-04-29 19:58:00,,0816.4,4.99,0.00,26.5,25.4,00.0,35.5,28.2,04.6,0000.0,0014.29,0004.16,0002.70
2022-04-29 19:59:00,,0816.2,5.01,0.00,26.5,25.4,00.0,35.5,28.2,04.7,0000.0,0014.57,0004.17,0002.71
